TIME,DELAY(SENSOR),PRES,OXYGEN,RAWTEMP,T(OPTODE),TCPHASE,FLUOR,BETA(BETA700),BETA(BETA412),BETA(BETA440),CDOM,C(CSC),ED(ED411.90),ED(ED443.80),ED(ED489.40),ED(ED554.70),LU(LU412.20),LU(LU443.80),LU(LU489.40),LU(LU555.00),COMP,TILTX,TILTY,CHECK
1350683340,5805,884.1099853515625000,169.5933074951172000,458.7728881835937500,9.1652517318725590,39.7882003784179700,50,100,62,78,54,1793,2147447908,2147791616,2147580160,2147821248,2147306020,2147454491,2147752137,2148276982,833,6,14,19472
1350686936,5802,8.3000001907348630,205.1912994384765600,517.7800292968750000,7.3224840164184570,38.4618186950683600,50,100,59,78,53,1785,2147440932,2147797421,2147580342,2147832237,2147310208,2147451510,2147761618,2148280804,887,6,14,32922
1350690536,5803,1124.0000000000000000,213.2953033447265600,526.1353149414062000,7.0596561431884770,38.1337509155273440,50,98,61,78,55,1784,2147435510,2147796873,2147584877,2147833133,2147305755,2147450971,2147762989,2148281526,2888,6,15,15077
1350694136,5805,11.8999996185302730,215.3264007568359400,527.3894042968750000,7.0201630592346190,38.0387001037597660,50,96,61,78,55,1780,2147437531,2147800329,2147586724,2147832128,2147308242,2147448210,2147765248,2148285979,3286,6,15,1060
1350697736,5806,118.0000000000000000,216.3074035644531200,529.0808715820312000,6.9668769836425780,38.0132789611816400,50,97,60,77,54,1779,2147435574,2147803154,2147583853,2147832265,2147305243,2147448420,2147763190,2148282368,629,6,15,56824
1350701336,5804,10.3000001907348630,217.4409942626953000,530.9509887695312000,6.9079418182373050,37.9826087951660160,50,98,62,77,55,1776,2147436589,2147797302,2147581302,2147830674,2147308571,2147449636,2147765677,2148284763,3422,6,14,58789
1350704936,5806,10.6000003814697270,217.2864074707031200,531.2772216796875000,6.8976569175720215,37.9967689514160160,50,96,63,79,56,1772,2147433856,2147799817,2147586514,2147832923,2147302701,2147449197,2147759954,2148282678,211,6,14,40239
1350708536,5804,1065.0000000000000000,219.1381072998047000,532.1939697265625000,6.8687520027160645,37.9089698791503900,50,98,61,76,55,1770,2147431497,2147798802,2147585755,2147828278,2147308077,2147446308,2147760374,2148285010,3441,6,15,3957
1350712136,5804,12.3999996185302730,220.5717926025390600,534.8574829101562000,6.7847399711608890,37.8768196105957000,50,99,62,76,55,1765,2147432950,2147802715,2147584841,2147829613,2147307328,2147454546,2147765741,2148281270,3570,6,15,38722
1350715736,5804,1096.0000000000000000,219.9853973388672000,535.3068847656250000,6.7705612182617190,37.9171791076660160,50,97,61,77,54,1766,2147433572,2147797933,2147582665,2147826980,2147308260,2147452992,2147763346,2148280475,442,6,15,20939
1350719336,5803,1068.0000000000000000,220.6940002441406200,536.8364868164062000,6.7222838401794430,37.9050292968750000,51,97,62,77,55,1764,2147433252,2147799506,2147583753,2147829860,2147306715,2147448795,2147763145,2148282998,3590,6,15,5275
1350722936,5805,10.0000000000000000,222.7767944335937500,537.2078857421875000,6.7105598449707030,37.7962303161621100,50,98,62,78,55,1765,2147432758,2147798098,2147584320,2147832320,2147306733,2147453705,2147767030,2148281033,3537,6,15,20157
1350726536,5806,12.3999996185302730,222.5493011474609400,536.4454956054688000,6.7346267700195310,37.7954902648925800,50,97,62,77,54,1764,2147431789,2147795346,2147584009,2147833654,2147303844,2147452150,2147765321,2148280731,142,6,15,21633
1350730136,5805,11.6999998092651370,222.3641052246093800,537.1071777343750000,6.7137389183044430,37.8172187805175800,50,100,62,77,55,1764,2147433097,2147796992,2147584429,2147832137,2147305636,2147448649,2147763090,2148284050,3261,6,14,43977
1350733736,5804,11.5000000000000000,225.5684051513672000,538.4978027343750000,6.6698322296142580,37.6665611267089840,50,101,61,76,55,1765,2147434596,2147797714,2147583104,2147831606,2147305124,2147454656,2147767414,2148283355,468,6,14,22873
1350737336,5801,10.1000003814697270,223.5554962158203000,537.5189208984375000,6.7007451057434080,37.7592201232910160,50,97,61,77,55,1764,2147432073,2147800438,2147584018,2147830253,2147306102,2147452882,2147763840,2148283684,3513,6,14,13407
1350740936,5806,13.6999998092651370,223.3428955078125000,536.1973876953125000,6.7424559593200680,37.7469291687011700,50,99,62,77,54,1767,2147430390,2147797814,2147584283,2147833069,2147307062,2147453860,2147767195,2148283465,361,6,15,4593
1350744536,5804,13.0000000000000000,222.6275939941406200,535.6384277343750000,6.7600989341735840,37.7763710021972660,50,98,62,77,55,1767,2147436068,2147797668,2147584896,2147834678,2147310692,2147456777,2147767835,2148282496,47,6,14,44849
1350748136,5803,13.0000000000000000,219.9886932373047000,534.6201171875000000,6.7922310829162600,37.9046783447265600,50,97,62,78,56,1768,2147435693,2147795300,2147585115,2147828589,2147304256,2147452434,2147764882,2148282761,3584,6,15,62593
1350751736,5803,10.0000000000000000,219.1423034667968800,532.4927978515625000,6.8593311309814450,37.9146385192871100,50,99,60,78,54,1769,2147436571,2147794230,2147586048,2147829586,2147309385,2147459245,2147762066,2148283364,3482,6,15,62144
1350755336,5803,1199.0000000000000000,217.4463043212890600,532.8696289062500000,6.8474478721618650,38.0165214538574200,50,102,62,76,55,1772,2147435721,2147799350,2147585581,2147832384,2147305764,2147451373,2147764873,2148282166,3560,6,14,23106
1350758936,5804,11.6999998092651370,217.7427062988281200,533.3790283203125000,6.8313808441162110,38.0088882446289060,50,106,62,79,55,1776,2147434084,2147799643,2147585819,2147835364,2147304009,2147456813,2147769453,2148282569,394,6,14,26320
1350762536,5803,10.3000001907348630,218.6887054443359400,533.9733886718750000,6.8126339912414550,37.9660797119140600,50,97,60,77,55,1777,2147431826,2147798518,2147584548,2147831826,2147305755,2147454308,2147763876,2148283337,257,6,14,24297
1350766136,5806,1021.0000000000000000,220.0765991210937500,533.4263916015625000,6.8298869132995605,37.8784408569335940,50,96,60,77,55,1777,2147431460,2147798765,2147584832,2147831908,2147310372,2147453202,2147763849,2148280740,3296,6,14,4604
1350769736,5806,10.3000001907348630,220.3320007324218800,533.0103759765625000,6.8430080413818360,37.8571586608886700,50,99,60,77,56,1778,2147436278,2147796909,2147584941,2147829933,2147309339,2147449069,2147765156,2148282496,39,6,14,35376
1350773336,5803,1047.0000000000000000,218.4344024658203000,532.4395751953125000,6.8610100746154785,37.9530410766601560,50,101,60,91,54,1779,2147431908,2147795922,2147586843,2147830564,2147306249,2147448978,2147761216,2148279808,522,6,15,39111
1350776936,5804,12.8000001907348630,217.2028045654297000,532.9932861328125000,6.8435478210449220,38.0322189331054700,50,99,59,78,55,1780,2147432640,2147795254,2147585462,2147830582,2147306194,2147455067,2147765202,2148280210,3543,6,15,17805
1350780536,5803,1251.0000000000000000,220.7180023193359400,533.7490844726562000,6.8197078704833980,37.8484992980957000,50,98,59,78,56,1783,2147432822,2147794724,2147585197,2147830427,2147306377,2147450779,2147763465,2148279305,3095,6,14,10605
1350784136,5803,1230.0000000000000000,218.9647064208984400,533.5798950195312000,6.8250470161437990,37.9437103271484400,50,98,60,76,55,1783,2147434870,2147798080,2147585280,2147833444,2147310272,2147451236,2147765019,2148283757,3247,6,14,61976
1350787736,5804,11.1999998092651370,220.1651000976562500,535.0974731445312000,6.7771658897399900,37.9037590026855500,50,98,59,76,55,1783,2147434176,2147796525,2147585846,2147828205,2147305645,2147453019,2147765220,2148280978,3292,6,14,27585
1350791336,5803,12.0000000000000000,220.0054931640625000,534.7255859375000000,6.7889041900634770,37.9055900573730500,50,97,60,77,55,1785,2147434066,2147798262,2147585234,2147828224,2147307273,2147451474,2147761673,2148280073,167,6,14,39997
1350794936,5804,1019.0000000000000000,220.3851928710937500,534.4163818359375000,6.7986559867858890,37.8785591125488300,50,98,59,77,55,1783,2147438445,2147798418,2147585892,2147828754,2147307163,2147451236,2147767552,2148280530,121,6,14,43593
1350798536,5805,1094.0000000000000000,219.8739929199218800,534.7846069335938000,6.7870411872863770,37.9141311645507800,50,99,60,77,56,1785,2147436269,2147799872,2147584301,2147827446,2147310729,2147448749,2147765430,2148280064,3453,6,14,61715
1350802136,5802,11.5000000000000000,220.9483032226562500,536.6442260742188000,6.7283539772033690,37.8871803283691400,50,98,59,78,55,1784,2147429842,2147799460,2147585243,2147831853,2147305947,2147447780,2147768109,2148280393,3242,6,14,62223
1350805736,5803,10.8999996185302730,220.6907043457031200,536.6531982421875000,6.7280712127685550,37.9017601013183600,50,145,60,77,55,1783,2147432054,2147797376,2147584594,2147830656,2147307035,2147452169,2147767762,2148279616,3593,6,14,39650
1350809336,5804,11.0000000000000000,219.9898986816406200,536.0380249023438000,6.7474880218505860,37.9301300048828100,51,100,62,78,55,1779,2147435538,2147799561,2147589211,2147829897,2147305782,2147446902,2147765577,2148280804,183,6,14,2022
1350812936,5805,10.1000003814697270,220.2362976074218800,536.3574829101562000,6.7374038696289060,37.9218292236328100,52,120,61,76,56,1785,2147434422,2147800420,2147583387,2147830089,2147303908,2147449792,2147768795,2148281307,274,6,14,16690
1350816536,5804,12.0000000000000000,222.0308990478515600,536.5397949218750000,6.7316508293151855,37.8257789611816400,50,102,60,77,56,1786,2147436553,2147798226,2147585792,2147832804,2147305892,2147450176,2147764324,2148278208,140,6,14,40455
1350820136,5804,10.6999998092651370,222.0272064208984400,536.0272827148438000,6.7478280067443850,37.8168907165527340,50,99,61,76,55,1790,2147434331,2147798994,2147586194,2147831707,2147306011,2147452498,2147768411,2148281334,74,6,14,43946
1350823736,5805,12.6999998092651370,221.1504058837890600,534.7838745117188000,6.7870640754699710,37.8425216674804700,50,97,60,76,55,1792,2147436434,2147799963,2147584905,2147830089,2147307602,2147452507,2147767396,2148283017,104,6,14,9114
1350826856,5807,13.3000001907348630,218.7702026367187500,533.9730834960938000,6.8126411437988280,37.9618110656738300,50,98,61,76,56,1793,2147437174,2147796096,2147586560,2147832795,2147303945,2147445458,2147764845,2148281572,25,6,14,63818
